Temp
51 51 52 52 52 50 48 41 32 48 50 36 38 35 45 49 51 56 52 51 51 51 52 51 52 52 56 61 60 53 59 53 46 50 60 63 60 54 52 40 39 44 43 44
51 51 51 51 51 50 44 33 36 47 46 30 34 45 46 49 48 51 51 49 51 52 50 45 51 53 56 58 57 52 56 46 40 44 52 58 52 56 54 53 51 42 36 43
51 51 51 51 51 51 43 33 32 36 39 42 42 40 42 41 52 50 51 51 54 50 47 52 48 49 52 54 55 49 52 48 45 39 45 47 41 49 54 52 39 41 43 48
50 50 50 51 51 51 44 33 33 38 30 33 40 47 46 44 43 48 48 42 48 48 43 46 45 49 49 52 51 52 47 41 47 50 52 44 43 43 47 45 46 36 45 46
50 50 50 50 50 50 36 33 34 37 41 43 40 44 44 45 48 47 43 42 45 46 40 45 42 46 45 46 52 51 49 37 42 40 47 50 46 50 51 51 51 48 49 48
50 50 50 50 50 47 34 36 41 41 40 40 40 43 46 47 50 51 52 49 46 44 47 51 53 53 50 49 47 45 44 41 39 34 45 44 37 47 49 51 55 53 46 55
50 50 49 49 49 48 42 42 42 38 33 39 42 48 49 49 48 44 48 51 46 50 52 50 46 47 47 47 47 49 37 36 35 32 38 24 45 56 56 52 55 57 57 59
47 48 48 49 49 49 43 47 43 38 34 41 43 45 47 50 50 43 43 49 53 55 46 37 32 35 35 39 47 48 49 43 34 29 33 41 47 53 46 46 47 56 55 59
44 45 47 49 49 49 45 46 49 44 39 40 49 46 49 44 44 43 47 52 54 51 40 34 28 28 36 37 41 50 49 48 37 34 27 25 42 55 59 55 37 56 57 57
46 45 48 48 46 46 44 44 51 43 36 44 48 44 44 51 45 43 46 47 45 50 37 31 30 33 44 33 34 33 36 37 32 33 29 37 50 56 57 34 40 54 57 56
42 46 48 47 45 46 44 43 50 45 40 45 49 52 48 49 48 40 46 41 43 41 33 35 36 35 40 39 39 40 36 34 34 35 30 27 56 53 42 48 50 52 52 52
44 48 47 46 47 47 48 43 53 57 49 47 54 56 58 58 56 51 49 47 47 46 41 42 43 37 41 40 33 48 35 40 37 40 39 44 52 51 54 51 50 49 49 50
43 46 46 47 48 50 52 50 51 53 45 47 49 47 54 58 58 61 47 51 53 48 51 43 41 36 44 34 38 42 49 52 41 42 47 51 51 54 52 52 51 51 51 49
45 45 46 47 49 50 53 51 54 53 49 40 44 58 53 59 58 57 58 56 54 53 49 41 39 35 42 38 43 42 47 48 44 43 48 48 51 53 53 51 50 50 49 46
46 47 48 48 49 49 53 54 56 59 50 40 44 50 55 58 56 54 55 53 50 47 40 39 37 45 42 44 43 42 50 44 40 40 46 45 47 52 53 48 46 48 47 41
46 46 47 48 48 49 48 35 54 57 55 42 36 48 50 54 54 52 51 51 49 42 38 42 45 50 42 37 37 48 52 53 52 44 48 45 47 51 52 48 47 47 46 44
45 47 47 48 48 52 46 42 47 53 54 40 36 41 45 50 50 49 47 47 42 42 37 39 41 43 42 39 34 44 47 50 49 50 47 43 45 43 48 48 48 47 46 44
45 47 47 47 47 49 49 49 50 53 47 43 34 36 35 40 35 34 40 37 38 38 41 42 41 40 37 33 43 49 49 47 46 47 47 48 48 47 45 46 45 43 41 40
47 47 47 47 47 42 46 46 46 43 43 36 37 32 29 35 35 36 36 38 32 38 34 39 40 38 33 42 43 46 45 44 44 45 47 46 44 44 42 42 42 41 39 38
47 47 43 34 46 47 48 45 38 34 36 37 34 38 33 35 36 35 36 39 35 31 37 44 36 38 45 48 49 49 47 46 46 41 39 42 40 40 40 40 42 41 39 38
46 40 36 45 47 45 40 33 32 37 32 38 41 40 33 36 35 37 44 38 38 31 34 36 36 38 43 48 48 48 47 46 45 45 45 45 44 41 40 40 40 39 38 36
44 39 40 43 39 35 31 31 33 32 31 40 37 36 36 39 44 39 42 36 40 31 44 38 34 37 43 44 43 43 45 44 43 45 44 44 43 42 41 40 38 37 36 34
43 38 36 34 35 28 27 26 33 33 39 41 42 37 42 45 46 40 40 32 33 44 33 34 38 38 40 41 43 42 43 42 42 41 42 42 41 40 38 36 34 33 31 30
39 36 28 31 29 33 36 35 36 36 42 44 43 41 42 44 37 38 31 34 38 30 29 31 38 36 38 40 42 41 38 36 37 36 36 33 32 32 32 32 32 30 27 27
38 36 28 31 35 34 34 36 36 38 44 45 42 44 45 39 32 36 34 28 28 33 32 33 35 36 38 36 37 33 32 32 31 31 31 31 31 31 30 30 31 30 28 27
40 36 32 37 33 32 33 34 34 43 45 47 47 38 34 32 36 32 30 31 29 31 32 35 37 34 34 34 33 32 32 32 31 31 31 31 31 30 30 30 30 29 28 26
36 32 34 33 35 33 33 34 40 47 43 35 42 32 29 38 33 31 36 31 31 33 34 35 36 34 33 32 32 32 32 32 32 31 31 31 31 31 30 28 28 29 29 28
MSLP
1012.37 1012.40 1012.42 1012.56 1012.91 1013.65 1013.30 1012.62 1012.64 1012.44 1013.10 1013.29 1012.99 1011.81 1009.43 1009.56 1008.56 1008.02 1007.80 1007.44 1006.06 1005.54 1005.40 1004.80 1004.79 1004.77 1005.20 1006.30 1006.30 1006.39 1006.46 1006.39 1005.99 1005.95 1006.35 1006.57 1006.29 1006.67 1007.68 1007.89 1007.81 1007.71 1006.76 1005.02
1011.84 1011.87 1011.86 1012.00 1012.30 1012.73 1012.98 1012.95 1011.81 1011.65 1012.05 1011.48 1011.38 1010.20 1010.00 1009.39 1008.96 1008.27 1008.04 1007.80 1007.31 1006.93 1006.26 1006.21 1005.63 1005.89 1006.89 1007.15 1007.05 1007.21 1007.02 1007.30 1006.93 1006.49 1006.42 1006.44 1006.48 1006.28 1007.05 1007.47 1007.52 1007.03 1006.92 1005.48
1011.23 1011.29 1011.32 1011.32 1011.72 1012.20 1012.84 1013.92 1012.56 1010.95 1011.03 1010.74 1010.07 1009.80 1009.17 1009.10 1009.05 1008.81 1008.66 1008.15 1007.62 1007.79 1007.44 1007.02 1006.54 1006.82 1007.80 1008.06 1007.88 1008.64 1008.44 1008.15 1007.57 1006.97 1006.64 1007.37 1007.40 1006.75 1006.78 1006.75 1007.15 1006.88 1006.33 1005.66
1010.51 1010.61 1010.70 1010.86 1011.13 1011.52 1012.47 1012.25 1011.15 1009.75 1009.32 1010.10 1009.38 1008.48 1007.78 1007.75 1008.07 1008.87 1009.61 1009.36 1008.42 1008.09 1008.01 1007.74 1007.59 1007.95 1008.78 1009.25 1009.24 1009.54 1010.18 1009.49 1008.67 1008.12 1007.34 1007.85 1008.15 1008.17 1007.62 1006.89 1006.90 1007.18 1006.19 1005.74
1009.66 1009.78 1009.98 1010.07 1010.38 1011.01 1011.63 1011.22 1010.68 1009.75 1008.12 1007.79 1008.05 1007.45 1006.89 1006.73 1006.88 1007.55 1008.49 1009.17 1009.34 1009.29 1009.19 1008.79 1008.69 1009.26 1009.74 1009.61 1009.86 1009.73 1010.33 1010.71 1010.32 1009.17 1008.57 1007.43 1006.85 1006.78 1005.99 1005.89 1005.71 1005.59 1005.54 1004.87
1008.79 1008.83 1008.96 1009.28 1009.43 1010.38 1010.18 1010.87 1009.44 1008.88 1007.09 1007.21 1007.08 1006.23 1005.62 1005.61 1006.24 1006.73 1007.39 1008.38 1008.93 1009.07 1009.54 1009.69 1009.69 1009.67 1010.56 1010.51 1010.11 1010.11 1010.28 1010.24 1010.18 1008.92 1008.62 1007.77 1006.76 1004.95 1005.50 1004.86 1004.37 1004.47 1003.85 1003.63
1007.78 1007.80 1008.08 1007.94 1008.57 1008.99 1008.85 1009.28 1008.58 1007.31 1006.69 1006.46 1005.80 1005.18 1005.26 1005.15 1005.75 1006.88 1007.47 1008.15 1008.64 1009.45 1010.44 1011.13 1011.38 1011.54 1010.87 1010.94 1010.71 1010.67 1010.69 1010.68 1010.71 1009.36 1008.89 1007.09 1005.57 1005.10 1004.46 1004.07 1003.70 1003.46 1003.25 1003.04
1007.12 1006.99 1007.09 1007.01 1007.28 1007.70 1008.21 1008.08 1007.59 1007.71 1006.42 1006.24 1006.03 1005.37 1004.98 1005.17 1005.96 1007.99 1008.57 1008.92 1009.22 1009.60 1011.11 1011.62 1012.10 1011.49 1011.27 1010.63 1010.08 1009.63 1009.79 1009.73 1009.87 1009.43 1008.04 1006.54 1005.15 1004.10 1004.42 1004.12 1003.77 1003.86 1003.68 1003.42
1006.28 1005.82 1006.03 1005.63 1006.13 1006.41 1007.52 1006.95 1006.90 1006.75 1006.31 1005.03 1004.83 1004.65 1004.24 1004.92 1006.12 1007.44 1007.81 1008.76 1009.90 1010.15 1010.97 1011.50 1010.97 1010.08 1009.25 1008.32 1008.26 1008.36 1008.62 1008.98 1009.50 1009.12 1007.96 1006.27 1004.80 1004.47 1004.26 1004.28 1003.93 1004.22 1004.07 1003.86
1004.43 1004.31 1004.48 1004.76 1005.33 1006.23 1006.07 1006.18 1006.26 1006.07 1006.80 1006.05 1005.30 1004.64 1004.79 1005.19 1006.30 1007.17 1008.01 1008.65 1009.61 1010.13 1010.65 1010.75 1010.27 1009.00 1008.15 1007.90 1007.34 1007.99 1008.02 1008.18 1008.26 1008.22 1007.62 1006.24 1004.62 1004.57 1004.96 1005.56 1004.32 1004.64 1004.45 1004.71
1004.34 1003.77 1004.01 1004.25 1005.19 1005.86 1005.55 1005.98 1006.11 1006.29 1006.41 1006.23 1005.89 1005.39 1005.46 1005.73 1006.32 1006.64 1007.78 1009.00 1009.24 1009.59 1009.98 1009.67 1009.16 1008.58 1007.86 1007.16 1006.80 1006.52 1007.01 1007.07 1006.91 1007.18 1006.91 1005.96 1004.37 1004.21 1005.19 1005.37 1005.75 1005.96 1006.12 1006.64
1003.30 1002.81 1003.96 1004.57 1004.95 1005.57 1005.70 1005.88 1006.07 1005.78 1005.55 1006.12 1006.32 1006.29 1006.09 1005.75 1005.91 1006.43 1007.35 1007.38 1007.79 1008.45 1008.77 1008.67 1008.39 1007.95 1007.36 1006.73 1005.98 1005.86 1005.72 1005.94 1006.15 1006.11 1005.39 1005.98 1005.29 1005.26 1005.51 1006.33 1006.35 1006.89 1007.33 1008.12
1004.14 1003.82 1004.17 1004.70 1005.27 1005.38 1005.40 1005.98 1006.51 1006.09 1006.24 1006.61 1006.86 1006.92 1007.19 1007.24 1007.09 1006.91 1006.99 1007.43 1007.52 1008.52 1008.85 1009.09 1008.83 1008.09 1007.07 1006.61 1005.70 1005.39 1004.73 1004.81 1005.27 1005.81 1004.96 1004.90 1005.41 1005.53 1006.14 1006.66 1007.01 1007.64 1008.24 1009.33
1005.03 1004.91 1004.93 1005.28 1005.71 1006.01 1005.74 1006.40 1006.57 1006.10 1006.07 1006.35 1006.20 1006.33 1006.69 1007.26 1007.56 1007.56 1007.54 1007.52 1008.20 1008.40 1009.23 1009.84 1009.20 1008.77 1008.28 1007.05 1005.76 1005.30 1005.03 1004.75 1004.70 1004.85 1004.95 1005.50 1005.44 1005.63 1006.16 1007.04 1007.75 1008.16 1008.98 1010.29
1005.26 1005.41 1005.33 1005.62 1005.97 1006.16 1005.93 1006.09 1005.84 1004.94 1006.27 1006.33 1005.94 1006.75 1006.64 1006.93 1007.46 1007.89 1007.98 1007.97 1007.95 1008.67 1009.60 1009.69 1009.10 1008.31 1008.20 1007.11 1006.56 1005.39 1004.84 1004.47 1004.88 1004.57 1005.44 1005.61 1005.65 1005.61 1006.39 1007.36 1008.19 1008.78 1009.56 1011.10
1005.69 1005.90 1006.02 1006.18 1006.54 1006.62 1006.45 1007.06 1007.20 1007.42 1007.58 1007.55 1007.07 1007.24 1006.59 1006.79 1007.12 1007.49 1007.69 1007.72 1008.31 1009.59 1009.92 1009.33 1008.65 1008.21 1008.49 1007.19 1005.81 1004.89 1004.19 1004.41 1004.88 1005.64 1006.26 1006.40 1006.56 1006.38 1006.91 1007.82 1008.57 1009.25 1010.08 1011.36
1005.59 1005.70 1006.14 1006.54 1006.97 1006.81 1006.98 1007.78 1007.77 1007.61 1008.15 1008.23 1007.33 1005.86 1006.60 1006.71 1007.09 1007.38 1007.77 1008.44 1009.14 1009.59 1009.94 1009.36 1008.85 1008.47 1008.63 1007.20 1005.75 1005.57 1005.63 1005.41 1005.86 1006.29 1006.81 1007.10 1007.30 1007.64 1008.04 1008.49 1009.07 1010.02 1010.80 1011.93
1006.20 1006.24 1006.89 1007.33 1007.65 1007.69 1007.56 1008.05 1007.84 1007.88 1008.27 1008.50 1007.30 1007.17 1007.97 1008.10 1008.02 1008.37 1008.87 1009.08 1009.55 1009.68 1009.22 1008.97 1008.56 1008.64 1008.60 1006.65 1004.84 1004.67 1005.57 1006.18 1006.53 1006.87 1007.30 1007.24 1007.63 1008.28 1008.86 1009.47 1010.17 1010.68 1011.60 1012.67
1005.89 1006.57 1007.48 1008.06 1008.03 1007.96 1008.08 1008.65 1009.08 1009.74 1009.26 1008.16 1007.33 1007.11 1007.26 1008.33 1008.08 1008.44 1008.81 1009.12 1009.18 1009.33 1008.71 1008.00 1008.25 1007.08 1006.39 1005.32 1005.27 1005.32 1005.98 1006.46 1006.81 1007.40 1007.50 1007.97 1008.34 1008.85 1009.64 1010.27 1010.81 1011.28 1012.22 1013.25
1006.59 1007.27 1007.23 1007.85 1007.60 1008.34 1008.54 1009.06 1009.37 1009.98 1009.27 1008.27 1006.90 1006.76 1006.87 1007.75 1007.10 1007.41 1007.80 1007.73 1007.52 1007.45 1006.94 1006.65 1006.77 1005.23 1005.18 1005.25 1005.27 1005.58 1006.38 1007.01 1007.45 1007.74 1008.07 1008.36 1008.84 1009.53 1010.23 1010.81 1011.35 1011.95 1012.93 1013.82
1006.51 1006.99 1007.45 1007.48 1007.97 1008.29 1008.35 1008.41 1008.57 1007.62 1007.22 1006.23 1005.19 1005.34 1006.33 1006.65 1005.81 1005.29 1005.44 1005.54 1005.72 1005.22 1005.48 1005.49 1005.04 1004.18 1004.81 1005.45 1005.79 1006.51 1007.15 1007.63 1008.11 1008.24 1008.37 1008.71 1009.24 1009.99 1010.70 1011.32 1011.96 1012.77 1013.64 1014.49
1006.60 1007.46 1008.01 1008.07 1007.94 1007.90 1007.81 1007.03 1006.69 1005.97 1004.66 1004.25 1004.24 1004.71 1004.90 1004.87 1004.66 1004.79 1004.60 1004.61 1004.35 1004.26 1004.37 1004.49 1004.04 1005.15 1005.66 1006.18 1006.97 1007.48 1007.88 1008.37 1008.67 1008.75 1008.94 1009.39 1009.91 1010.67 1011.31 1012.01 1012.76 1013.62 1014.57 1015.44
1007.09 1007.18 1007.22 1007.16 1007.01 1006.59 1006.23 1005.44 1004.55 1003.84 1003.53 1003.38 1003.27 1003.66 1003.64 1003.71 1003.86 1004.36 1004.10 1004.24 1004.32 1004.47 1004.55 1004.14 1004.57 1005.88 1006.55 1007.16 1007.69 1008.29 1008.71 1009.22 1009.54 1009.81 1010.10 1010.44 1011.00 1011.66 1012.33 1013.08 1013.90 1014.77 1015.74 1016.75
1005.83 1005.95 1006.22 1005.94 1005.78 1005.27 1004.78 1004.51 1004.04 1004.13 1003.16 1002.65 1002.84 1003.06 1003.15 1003.46 1003.88 1004.32 1004.43 1005.16 1004.97 1004.75 1004.60 1004.56 1005.42 1006.77 1007.34 1007.86 1008.44 1008.98 1009.60 1010.26 1010.59 1011.08 1011.52 1012.06 1012.55 1013.07 1013.63 1014.31 1014.96 1015.71 1016.72 1017.61
1005.28 1005.81 1005.58 1005.52 1005.61 1005.67 1005.57 1005.25 1004.84 1004.51 1003.35 1003.03 1003.04 1003.11 1003.20 1003.76 1004.45 1004.67 1005.08 1005.49 1005.07 1004.83 1004.91 1005.96 1006.88 1007.61 1008.18 1008.86 1009.44 1010.14 1010.72 1011.23 1011.74 1012.26 1012.68 1013.12 1013.53 1014.01 1014.62 1015.27 1015.86 1016.49 1017.29 1017.97
1005.39 1005.78 1005.77 1005.68 1005.66 1005.62 1005.55 1005.21 1004.81 1004.25 1003.65 1003.27 1003.00 1003.24 1003.66 1004.13 1004.39 1004.79 1004.91 1005.06 1005.12 1005.79 1006.65 1007.21 1007.78 1008.45 1009.10 1009.73 1010.31 1010.89 1011.44 1011.88 1012.40 1012.88 1013.33 1013.78 1014.15 1014.60 1015.16 1015.82 1016.34 1016.96 1017.63 1018.30
1005.45 1005.88 1006.29 1006.18 1005.81 1005.70 1005.63 1005.38 1004.51 1004.34 1003.73 1003.41 1003.21 1003.62 1004.13 1004.59 1004.54 1004.86 1005.31 1005.80 1006.53 1007.14 1007.65 1008.14 1008.44 1009.11 1009.76 1010.33 1010.87 1011.45 1011.91 1012.35 1012.80 1013.25 1013.72 1014.16 1014.54 1015.04 1015.53 1016.00 1016.67 1017.23 1017.84 1018.46
Wind_Speed
14 15 16 17 15 14 6 2 8 11 13 11 11 12 33 25 26 10 7 7 7 12 6 15 17 13 6 3 6 14 16 7 12 16 12 17 18 22 19 12 17 12 14 17
15 15 17 17 14 11 1 2 2 12 12 12 17 25 29 24 26 17 15 9 7 5 9 8 10 9 7 3 6 1 7 6 9 14 13 8 15 21 19 20 16 22 15 10
16 16 17 17 17 14 5 2 5 4 9 5 20 25 20 26 24 18 13 16 15 9 9 8 6 7 5 4 7 8 4 9 13 15 15 2 6 19 19 22 16 17 20 23
17 17 17 18 19 17 7 6 3 6 11 13 18 26 21 25 26 20 13 8 14 16 14 14 12 8 6 5 5 1 4 10 16 21 23 12 11 13 18 18 17 13 17 19
19 19 18 19 18 15 3 4 5 5 17 23 23 21 25 26 25 22 22 18 15 17 13 14 11 14 15 15 14 15 11 9 17 22 23 22 21 22 26 22 24 24 23 25
21 21 20 19 18 14 3 3 5 6 9 22 18 20 26 27 23 21 24 24 20 18 17 16 15 14 9 12 12 14 16 13 16 21 21 20 18 29 22 25 26 24 24 23
22 20 20 21 22 21 4 6 4 3 8 16 21 25 23 23 19 14 12 13 16 11 7 6 8 8 7 8 12 14 8 9 7 6 11 14 12 17 25 22 23 22 24 22
21 23 22 22 23 22 7 7 5 3 4 16 21 21 20 18 13 15 19 18 16 5 14 4 4 6 6 13 23 22 20 15 9 8 13 16 19 15 6 11 17 17 19 19
28 29 24 21 18 20 15 8 5 3 6 13 20 16 14 13 13 14 9 5 6 4 3 3 6 6 9 8 8 12 20 18 13 12 15 18 18 20 13 10 15 15 20 19
17 19 21 16 22 19 3 5 7 5 3 2 7 14 13 12 11 10 10 12 9 9 6 6 7 12 12 7 8 7 5 9 17 15 15 16 24 24 2 11 14 7 7 5
25 20 13 20 27 22 3 4 4 4 3 5 3 3 10 10 11 10 10 8 7 7 7 6 9 8 11 15 12 16 9 8 11 13 18 19 13 2 12 5 1 1 2 1
16 21 22 15 21 16 12 4 4 1 4 5 2 4 6 7 9 8 11 6 9 6 7 7 6 9 7 14 16 17 18 13 11 11 5 6 6 8 7 4 3 2 3 6
13 10 17 20 18 9 2 7 5 3 4 4 5 8 8 7 5 5 6 8 5 4 1 4 4 9 8 12 14 16 18 14 9 8 10 14 9 8 6 6 4 4 7 11
6 3 10 16 14 7 5 7 7 4 4 3 6 9 12 12 10 10 8 3 3 1 1 5 4 4 4 8 10 10 9 8 8 14 16 4 8 13 9 6 4 7 9 13
4 5 8 16 13 7 5 4 4 3 3 1 4 1 10 13 14 15 14 10 6 2 4 5 6 9 7 9 7 10 12 13 11 12 3 10 4 9 11 10 9 10 13 14
3 8 8 12 14 7 4 4 2 3 1 1 4 3 7 15 14 15 12 9 6 4 3 5 6 10 5 5 7 9 7 6 7 6 2 5 3 3 6 9 10 11 12 14
2 13 9 11 14 7 3 3 3 9 4 1 4 3 4 5 9 6 5 4 2 4 2 5 8 8 3 8 14 4 8 3 2 2 5 4 5 4 7 8 9 11 12 13
4 15 14 13 11 2 4 5 4 5 3 3 4 2 3 3 3 4 1 4 3 4 4 4 6 3 3 7 11 11 5 4 5 5 3 3 5 9 9 9 11 13 13 14
6 20 18 8 3 2 5 15 11 6 3 3 4 3 2 3 4 3 3 3 3 4 5 7 5 8 8 7 5 7 7 6 6 5 4 6 8 9 10 10 12 13 13 14
22 15 5 3 4 19 12 4 3 2 3 4 5 1 4 5 5 5 6 6 5 7 8 6 5 6 7 6 3 7 7 6 7 6 6 7 8 9 9 10 10 10 13 13
8 4 3 5 15 3 2 3 4 6 5 6 6 7 4 6 6 6 5 5 5 5 6 8 5 6 7 6 8 9 8 8 4 2 2 4 7 8 9 10 10 11 13 13
5 5 3 3 3 3 6 5 5 7 6 7 5 4 5 4 2 2 4 3 4 3 8 4 3 6 7 9 9 8 8 6 4 3 3 5 8 8 8 9 9 10 10 9
3 3 5 4 5 6 5 6 5 3 5 5 6 6 4 6 4 4 2 3 2 3 3 4 4 8 7 9 8 8 7 6 6 7 6 6 8 7 7 7 8 11 11 11
3 3 4 3 5 5 2 6 5 3 3 6 6 3 2 1 3 1 3 2 2 4 4 3 4 8 9 8 8 8 8 7 8 8 8 8 9 8 9 9 9 11 12 12
1 2 2 2 1 1 2 3 1 1 4 5 5 3 2 3 3 1 3 3 4 4 0 3 5 8 8 8 7 7 7 6 7 7 8 8 8 8 9 8 9 9 11 11
1 2 2 1 3 3 2 0 2 4 3 2 1 2 3 1 2 3 3 3 3 3 3 3 5 7 6 6 6 6 6 7 8 7 8 8 9 8 8 9 8 9 10 11
2 2 1 2 2 3 2 2 1 0 3 1 1 2 2 2 1 2 1 2 4 4 4 3 4 7 7 7 7 7 7 8 8 8 8 8 8 9 8 8 8 8 9 9
Wind_Direction
275 276 271 267 255 244 296 219 181 189 171 181 201 215 216 225 240 201 225 312 285 236 217 206 194 200 162 160 173 199 217 237 227 204 218 232 231 211 226 222 237 259 269 270
274 271 271 261 258 227 192 267 194 176 170 182 189 218 223 229 236 231 229 238 242 273 197 222 222 209 73 85 205 293 176 227 233 249 258 242 237 235 217 246 237 248 250 244
272 270 269 263 252 247 153 239 229 199 183 205 201 203 215 221 230 243 266 244 236 220 233 245 213 200 93 24 64 25 350 247 248 243 239 137 259 258 255 251 234 252 249 262
270 270 263 263 254 234 225 172 258 246 168 192 215 201 208 209 209 202 220 261 240 242 232 235 232 258 181 246 166 213 28 260 251 252 260 174 239 248 259 250 254 243 266 260
269 270 260 266 257 230 117 209 174 246 181 185 205 212 209 213 213 207 226 227 243 244 255 266 237 230 240 235 241 241 177 235 253 268 282 266 265 253 250 260 245 248 254 255
269 270 259 257 246 198 145 211 250 208 198 189 203 208 209 212 208 217 211 222 230 243 236 252 264 287 230 252 256 252 253 241 245 252 243 258 264 255 267 264 261 264 263 265
276 265 260 258 237 223 168 195 209 229 167 189 203 203 204 205 207 216 251 216 215 225 43 24 12 305 290 270 255 257 239 233 241 259 279 257 249 244 248 269 256 260 259 264
279 270 262 245 235 223 205 199 180 215 172 191 205 208 202 213 196 184 204 211 232 166 195 179 220 227 218 233 240 235 233 247 253 246 253 264 268 248 233 254 264 272 283 278
279 257 251 231 238 235 196 182 177 169 218 203 207 205 206 199 201 210 214 83 134 125 147 176 226 218 227 222 191 230 233 236 234 249 252 255 261 265 315 354 261 258 254 260
293 228 230 219 177 164 190 141 151 99 100 203 192 200 197 202 183 200 204 197 199 192 208 222 236 244 245 230 225 176 184 222 229 238 249 259 264 271 201 241 269 344 318 306
306 238 202 174 152 155 145 101 116 123 136 156 198 184 183 191 195 187 166 157 212 182 210 236 235 246 253 258 253 261 230 217 216 230 244 254 247 150 214 298 56 319 4 222
311 162 155 172 157 160 141 106 121 338 128 96 161 220 274 291 226 228 167 216 155 195 212 224 252 245 252 251 251 248 241 250 269 251 280 225 267 222 227 253 277 212 163 144
14 117 150 159 145 143 171 132 131 131 87 137 179 211 222 255 247 273 208 224 180 180 345 283 281 256 247 242 243 248 255 214 227 260 261 235 240 196 211 216 228 174 145 140
334 100 152 163 132 128 126 145 164 155 144 175 180 202 205 198 216 224 233 239 127 24 178 258 265 270 0 293 286 279 265 308 263 252 258 241 247 247 223 196 192 163 144 144
165 162 142 145 132 139 74 94 152 85 6 253 133 201 235 211 209 221 224 210 188 212 235 223 244 263 271 257 276 266 269 255 251 259 311 252 308 218 207 179 189 166 156 142
125 167 149 153 153 152 91 52 173 222 327 332 221 345 216 197 208 212 215 205 193 166 204 256 252 243 260 271 276 297 283 220 264 243 320 87 70 96 159 178 185 171 156 155
170 175 177 156 156 189 55 42 25 152 172 207 249 206 56 234 199 203 213 187 154 200 199 235 263 261 242 266 259 249 284 275 209 192 150 136 162 162 166 163 159 155 148 147
245 172 170 151 171 333 193 47 56 166 120 235 278 114 205 157 141 168 91 155 164 199 234 200 232 204 210 255 258 228 183 191 182 171 239 326 137 139 145 148 153 157 150 153
155 146 139 127 184 185 82 96 80 355 297 243 219 222 230 145 162 136 133 152 175 173 216 223 214 225 225 246 195 178 171 184 173 182 151 141 152 148 150 157 168 163 154 159
131 135 145 157 169 110 130 149 108 234 220 238 245 7 211 187 176 158 166 166 201 195 207 170 237 215 205 190 189 143 147 144 147 148 162 158 154 157 159 168 168 159 158 158
163 144 125 88 127 148 167 193 214 196 222 207 236 217 224 190 209 154 172 173 191 206 160 186 224 227 152 150 126 125 130 131 96 52 93 162 162 165 166 163 158 152 158 163
108 100 119 149 173 194 213 199 194 220 219 174 175 204 205 163 160 96 181 183 205 173 164 212 241 101 123 133 128 134 135 117 80 51 121 148 149 158 159 158 154 148 140 127
129 190 157 202 163 207 224 189 219 198 171 194 168 164 170 162 173 139 220 150 128 144 186 219 41 111 148 146 140 130 120 107 92 87 95 116 129 129 140 133 113 121 122 126
227 181 165 260 168 230 262 348 17 7 298 172 159 126 66 82 68 345 101 67 208 212 218 196 112 152 158 147 133 136 113 94 98 100 102 89 90 85 95 115 128 130 140 146
125 254 191 218 14 14 315 312 260 280 253 145 153 123 97 72 95 57 122 165 210 228 172 76 106 137 133 125 121 114 118 112 118 119 121 124 125 130 124 131 144 148 150 150
50 8 221 145 224 144 200 286 174 203 171 178 160 131 85 101 128 180 208 226 224 96 76 95 136 132 126 126 120 117 119 121 127 125 130 133 136 138 139 145 151 151 155 158
324 79 107 300 339 43 78 278 139 183 217 128 144 113 69 139 215 194 227 341 64 114 103 67 122 144 137 129 118 119 124 133 134 132 136 135 135 124 140 149 148 154 153 147